Tracking 31027 objects as of 19-Jul-2025
HD Live streaming from Space Station
objects crossing your sky now

IUS R/B(1)

Track IUS R/B(1) now!
10-day predictions


NORAD ID: 13971
Int'l Code: 1983-026D
Perigee: 288.9 km
Apogee: 19,593.1 km
Inclination: 25.9 °
Period: 345.6 minutes
Semi major axis: 16312 km
RCS: 12.7154 m2 (large)
Launch date: April 4, 1983
Source: United States (US)
Launch site: AIR FORCE EASTERN TEST RANGE (AFETR)

Note: This is a ROCKET BODY
Your satellite tracking list
STARLINK-30103
Track 1 satellite(s)




NASA's NSSDC Master Catalog

Two Line Element Set (TLE):
1 13971U 83026D   25199.45423378  .00005737  00000-0  10985-2 0  9999
2 13971  25.9095 110.8234 5917174 346.8831   2.7505  4.16717499493529
Source of the keplerian elements: AFSPC